Flag for Macedonia, Republic of Weather past 2 weeks in Skopje, Macedonia, Republic of

Now
66 °F

Passing clouds.


Feels Like: 66 °F
Forecast: 60 / 92 °F
Wind: No wind

Location: Skopje-Petrovec

Current Time: Aug 23, 2014 at 3:56:22 AM

Latest Report: Aug 23, 2014 at 2:30 AM


Visibility: N/A

Pressure: 30.01 "Hg

Humidity: 88%

Dew point: 63 °F

Location of SkopjeLocation

Historic Weather in Skopje — Graph

°F

Skopje temperature yesterday

Maximum temperature yesterday: 90 °F (at 4:00 PM)
Minimum temperature yesterday: 61 °F (at 4:30 AM)
Average temperature yesterday: 74 °F

Past Weeks' High & Low Weather Summary

 TemperatureHumidityPressure
High97 °F (Aug 13, 3:00 PM)100% (Aug 8, 11:00 PM)30.09 "Hg (Aug 8, 11:00 PM)
Low52 °F (Aug 19, 5:00 AM)17% (Aug 18, 5:00 PM)29.77 "Hg (Aug 14, 4:30 PM)
Average76 °F60%29.96 "Hg
* Reported Aug 8 2:00 AM — Aug 23 2:30 AM, Skopje, Weather by CustomWeather, © 2014

Note: Actual official high and low records may vary slightly from our data, if they occured in-between our weather recording intervals... More about our weather records

Advertising

Skopje weather history for previous 24 hours

 ConditionsComfort  
Time TempWeatherWind HumidityBarometerVisibility
2:30 AM
Aug 23
66 °FPassing clouds.No wind88%30.01 "HgN/A
2:00 AM70 °FPassing clouds.No wind78%29.98 "HgN/A
1:30 AM70 °FPassing clouds.5 mph78%29.98 "HgN/A
1:00 AM68 °FPassing clouds.2 mph88%29.98 "HgN/A
12:30 AM70 °FPassing clouds.No wind83%29.98 "HgN/A
12:00 AM72 °FPassing clouds.No wind78%29.98 "HgN/A
11:30 PM
Aug 22
72 °FPassing clouds.No wind78%29.98 "HgN/A
11:00 PM72 °FPassing clouds.No wind78%29.98 "HgN/A
10:30 PM73 °FPassing clouds.No wind74%29.98 "HgN/A
10:00 PM75 °FPassing clouds.No wind69%29.98 "HgN/A
9:30 PM75 °FPassing clouds.No wind69%29.98 "HgN/A
9:00 PM75 °FPassing clouds.No wind69%29.98 "HgN/A
8:30 PM77 °FPassing clouds.No wind65%29.95 "HgN/A
8:00 PM79 °FPassing clouds.No wind61%29.95 "HgN/A
7:30 PM82 °FPassing clouds.2 mph55%29.95 "HgN/A
7:00 PM82 °FPassing clouds.3 mph55%29.92 "HgN/A
6:00 PM90 °FPassing clouds.3 mph31%29.92 "HgN/A
5:30 PM90 °FPassing clouds.3 mph31%29.92 "HgN/A
5:00 PM90 °FPassing clouds.3 mph38%29.95 "HgN/A
4:30 PM88 °FPassing clouds.5 mph38%29.92 "HgN/A
4:00 PM90 °FPassing clouds.5 mph36%29.95 "HgN/A
3:30 PM88 °FPassing clouds.5 mph40%29.95 "HgN/A
3:00 PM88 °FPassing clouds.No wind40%29.98 "HgN/A
2:30 PM86 °FSunny.3 mph40%29.98 "Hg10 mi
2:00 PM84 °FSunny.No wind43%29.98 "Hg10 mi
1:30 PM82 °FSunny.No wind48%30.01 "Hg10 mi
1:00 PM81 °FSunny.No wind51%30.01 "Hg10 mi
12:30 PM79 °FSunny.2 mph54%30.01 "Hg10 mi
12:00 PM75 °FScattered clouds.No wind65%30.04 "HgN/A
11:30 AM73 °FScattered clouds.No wind65%30.04 "HgN/A
11:00 AM72 °FScattered clouds.No wind73%30.04 "HgN/A
10:30 AM70 °FScattered clouds.No wind73%30.07 "HgN/A
10:00 AM68 °FScattered clouds.2 mph83%30.07 "HgN/A
9:30 AM66 °FScattered clouds.No wind88%30.07 "HgN/A
9:00 AM64 °FThunderstorms. Partly sunny.2 mph88%30.09 "HgN/A
8:30 AM66 °FSunny.2 mph83%30.07 "Hg10 mi
8:00 AM66 °FSunny.3 mph83%30.07 "Hg10 mi
7:30 AM66 °FSunny.No wind83%30.04 "Hg10 mi
7:00 AM63 °FSunny.2 mph88%30.04 "Hg10 mi
6:30 AM61 °FClear.2 mph94%30.04 "Hg10 mi
6:00 AM63 °FClear.2 mph88%30.04 "Hg10 mi
5:30 AM61 °FClear.2 mph88%30.04 "Hg10 mi
5:00 AM63 °FClear.5 mph88%30.04 "Hg10 mi
4:30 AM61 °FClear.2 mph88%30.04 "Hg10 mi
4:00 AM63 °FClear.2 mph88%30.04 "Hg10 mi
3:00 AM64 °FClear.3 mph83%30.04 "Hg10 mi
Weather by CustomWeather, © 2014

See weather overviewHow to use our weather pages